Wind_Speed
6 6 8 8 8 8 8 7 8 8 8 8 7 6 7 6 5 5 5 5 4 4 4 4 4 3 2 2 2 1 1 3 4 4 4 4 5 5 6 6 6 6 7
6 6 7 8 8 7 7 7 8 8 8 7 7 7 6 6 5 6 5 5 4 4 4 4 3 3 2 2 2 2 1 1 2 3 4 4 5 5 6 6 6 6 6
6 7 7 8 8 8 8 8 8 9 9 8 7 7 6 6 5 5 5 5 5 4 4 3 3 3 3 2 2 2 1 1 1 2 3 3 4 4 5 5 6 6 6
7 7 7 8 8 8 8 8 8 9 9 8 7 6 6 6 5 5 5 4 4 3 2 2 3 3 3 3 3 2 2 2 2 1 1 2 3 4 5 5 6 7 7
8 8 8 8 8 8 8 8 9 9 8 7 7 7 6 6 6 6 5 4 3 3 2 2 2 3 2 2 2 3 2 2 2 1 1 2 3 4 4 5 6 6 7
8 9 9 9 9 8 8 8 8 8 8 7 7 7 7 7 7 6 5 4 4 3 2 1 2 3 3 2 2 2 2 2 1 1 2 2 2 3 4 5 6 6 5
9 9 9 9 8 8 8 8 8 8 8 7 7 7 7 7 6 6 5 4 4 3 2 2 2 3 2 2 3 3 3 3 2 2 2 2 2 2 3 4 5 5 6
9 8 8 8 8 8 8 8 7 8 8 7 7 7 7 7 7 6 5 5 5 4 3 4 3 3 3 3 3 3 3 3 3 3 3 2 2 2 2 3 4 4 4
8 8 8 8 8 8 8 8 7 7 7 7 6 7 7 7 7 6 6 6 5 5 4 4 3 3 3 3 3 3 3 3 3 3 3 3 3 3 3 3 4 4 4
8 7 8 8 8 8 8 8 8 7 7 6 6 6 7 7 6 6 6 5 5 5 4 4 3 4 4 3 3 3 4 4 4 4 3 2 2 3 3 4 4 4 5
7 7 7 8 8 8 8 8 7 7 7 6 6 6 6 6 6 6 5 5 6 5 4 4 4 4 4 4 4 4 4 5 5 5 4 3 3 3 3 4 4 4 4
7 7 6 7 8 7 8 8 7 7 6 6 6 6 6 6 6 5 5 5 5 5 4 4 4 4 4 4 5 5 5 5 5 5 4 4 4 3 3 3 3 4 4
7 7 6 7 7 7 7 7 7 6 7 7 6 6 6 6 5 5 5 5 5 4 4 4 5 5 5 5 5 5 5 6 6 6 6 5 5 4 2 2 3 4 5
8 7 6 6 7 7 7 7 7 7 6 6 6 6 6 6 5 5 5 5 5 4 4 4 4 5 5 6 5 5 5 6 6 7 7 6 6 5 3 3 4 4 4
7 6 6 6 6 6 6 7 6 7 6 6 6 5 5 5 4 4 4 4 4 4 4 4 4 4 5 5 5 5 5 6 6 6 6 6 6 6 5 4 4 4 4
7 6 6 5 6 6 6 6 6 7 6 6 6 5 5 4 4 4 4 3 3 3 3 4 4 4 5 5 5 6 6 6 6 6 6 6 7 7 7 6 5 5 5
6 6 6 5 6 6 6 6 6 6 7 6 6 5 5 4 3 3 3 3 3 3 4 4 4 4 5 5 6 6 7 6 6 6 6 6 6 6 7 7 6 5 5
6 5 5 5 5 5 5 6 6 6 6 6 5 5 4 3 3 2 2 2 2 2 3 3 4 4 4 5 6 7 8 7 7 7 6 6 7 7 7 7 7 6 6
5 5 5 5 5 5 6 6 5 6 5 6 5 4 3 3 2 2 2 2 2 2 3 3 3 3 4 5 6 7 7 7 7 7 7 7 7 7 7 8 8 8 7
5 5 5 4 4 4 5 5 5 5 5 5 4 4 3 2 2 2 2 2 2 3 3 3 2 3 4 4 5 6 7 7 7 8 7 7 7 7 8 8 9 9 8
4 4 4 3 3 3 3 3 3 4 4 4 4 3 2 2 2 2 2 2 2 3 3 3 3 3 3 4 5 6 6 7 7 7 7 8 8 8 8 9 9 9 9
4 4 4 3 2 2 2 3 3 3 3 3 3 2 2 1 1 1 1 2 2 3 3 3 3 4 4 5 5 6 7 7 7 8 8 8 8 8 9 9 9 9 9
4 3 3 3 2 1 1 1 2 2 2 2 2 2 2 2 1 1 2 2 2 3 3 4 4 4 5 5 5 6 7 8 8 8 8 8 8 8 9 9 9 9 10
4 3 2 2 1 1 1 1 1 1 1 1 1 2 2 2 2 3 3 4 4 4 4 5 5 5 5 5 6 7 8 8 8 9 8 8 8 9 9 9 9 9 10
5 4 3 3 2 1 0 0 1 1 1 1 2 3 4 4 4 5 5 5 5 5 5 6 5 6 6 6 7 7 8 7 8 9 9 9 9 9 9 10 10 10 10
6 4 4 3 3 2 2 1 2 2 2 3 3 4 5 5 5 6 7 7 7 7 6 7 7 7 7 7 7 8 8 8 9 10 10 10 10 10 10 10 11 11 11
Wind_Direction
123 120 121 124 123 119 123 127 126 122 126 124 120 122 118 119 113 106 114 114 117 118 114 101 91 94 98 77 42 348 291 247 249 245 241 235 234 239 240 239 243 247 249
126 129 122 122 128 130 133 130 126 125 126 127 125 124 115 114 111 111 112 108 113 116 108 98 101 96 80 59 32 3 323 286 247 236 239 240 240 247 250 245 244 245 248
123 129 130 130 131 135 141 140 132 126 125 126 127 121 117 115 109 108 109 109 108 111 108 97 97 98 86 71 60 36 18 349 188 213 227 236 242 253 257 255 253 249 248
121 127 133 136 138 137 138 142 138 131 128 124 121 117 115 117 115 112 107 100 93 101 105 102 99 93 78 67 59 60 62 84 128 154 193 247 258 260 255 250 253 254 253
119 127 134 135 135 135 134 136 134 127 122 118 116 117 113 108 104 104 105 97 86 103 104 105 104 102 86 70 54 69 65 68 80 88 301 287 279 262 260 261 259 265 258
120 127 132 132 133 135 135 132 129 127 125 121 115 113 108 104 105 107 103 100 94 94 94 104 103 106 103 72 48 51 44 42 43 18 336 312 289 270 270 268 266 267 261
115 121 131 134 138 142 139 129 127 126 123 121 117 112 108 108 109 106 98 101 101 102 89 79 95 99 85 77 62 53 50 38 20 357 349 329 303 290 287 279 270 272 272
111 115 127 133 140 143 141 131 127 127 123 117 109 109 105 107 106 100 95 97 99 108 100 82 82 83 74 77 62 45 35 27 7 354 356 340 318 310 295 283 280 281 284
114 116 125 127 132 134 134 129 126 127 124 117 112 111 106 105 103 93 94 94 96 100 100 88 73 59 53 48 44 34 30 15 2 351 348 338 312 296 291 292 299 297 295
115 117 125 126 129 132 134 131 129 127 127 124 121 116 110 108 102 101 101 95 96 94 84 82 66 47 43 42 33 23 24 11 2 356 353 337 316 295 291 293 298 305 309
114 117 121 126 130 132 134 133 130 128 132 133 130 124 118 115 109 105 97 96 92 84 76 70 61 48 39 35 27 23 13 15 12 8 6 352 333 319 309 304 301 307 321
112 116 119 127 131 134 133 133 133 135 135 132 132 131 125 118 110 105 102 96 90 81 70 62 52 43 42 36 27 25 17 10 6 10 8 357 337 323 310 302 301 305 311
108 114 118 125 131 134 136 135 136 138 133 128 127 123 120 117 112 115 110 98 86 78 68 56 50 46 48 38 33 27 20 13 11 11 9 3 357 344 319 312 324 319 315
101 108 116 121 128 134 139 138 138 140 134 128 128 123 119 117 119 121 116 101 84 74 68 55 51 44 40 34 30 23 26 22 18 15 13 13 18 18 13 349 333 327 322
99 105 109 117 123 132 135 141 142 140 136 131 128 127 125 120 116 116 107 97 84 70 62 51 52 41 36 32 28 22 21 18 16 17 17 20 21 17 7 360 350 339 328
90 97 100 109 122 126 134 139 142 137 133 133 130 124 124 124 119 107 96 89 83 69 53 52 51 43 41 38 34 28 20 13 12 10 13 20 20 16 14 10 2 352 346
80 88 94 105 115 121 131 138 137 134 132 133 131 124 122 122 119 101 94 82 72 62 52 52 48 47 48 43 40 32 24 21 17 15 20 20 17 15 17 15 8 1 352
81 84 90 103 111 118 127 133 133 131 131 133 130 130 132 127 117 101 87 73 60 47 37 40 35 43 47 43 38 35 31 25 19 18 20 16 14 14 14 10 5 360 350
84 84 89 99 111 121 126 132 134 136 137 136 131 130 130 127 120 116 97 71 46 31 34 31 32 44 43 33 28 26 22 17 15 16 15 12 11 9 6 4 3 359 351
79 83 84 92 108 125 130 135 138 142 144 140 135 135 128 123 117 107 85 57 39 26 23 22 39 41 26 19 14 14 12 8 9 11 10 8 7 6 4 1 357 354 353
68 66 69 81 95 119 137 147 150 149 152 153 152 145 134 126 111 88 74 47 18 14 14 8 21 17 5 2 4 4 2 2 5 6 7 3 0 358 356 356 355 353 352
58 64 66 71 85 113 132 146 158 165 167 172 177 186 183 165 136 74 60 26 5 2 359 344 345 347 343 344 348 347 347 351 355 359 358 355 356 356 354 353 354 354 353
42 52 61 56 57 70 90 146 162 170 173 179 202 224 228 236 259 306 305 309 326 337 337 331 330 328 332 331 333 338 342 345 345 347 349 349 349 350 349 350 349 349 350
23 28 28 21 25 27 31 130 147 171 177 203 242 252 252 256 275 285 286 295 301 310 320 316 315 318 317 318 323 328 332 335 337 338 341 344 346 346 346 345 345 345 346
4 6 4 0 357 342 346 151 195 193 201 241 267 274 268 267 275 284 288 290 291 295 305 307 310 311 312 312 312 319 326 329 327 331 332 333 335 338 339 338 339 340 340
350 346 343 337 331 322 304 279 247 249 259 266 273 280 280 282 280 285 289 289 289 289 297 304 314 311 306 306 308 310 315 321 321 321 320 321 324 327 330 332 333 335 336
Height
5888 5887 5887 5887 5887 5887 5888 5889 5889 5890 5890 5890 5891 5891 5891 5891 5891 5891 5891 5891 5891 5891 5891 5891 5891 5890 5890 5890 5889 5887 5886 5885 5885 5886 5887 5889 5890 5890 5891 5891 5891 5891 5891
5888 5887 5887 5888 5888 5888 5889 5889 5890 5890 5891 5891 5891 5892 5892 5892 5892 5892 5892 5892 5892 5892 5892 5892 5891 5891 5891 5890 5888 5886 5884 5883 5884 5885 5887 5888 5889 5890 5890 5890 5890 5890 5890
5888 5888 5888 5888 5889 5889 5890 5890 5891 5891 5892 5892 5892 5892 5892 5892 5892 5892 5893 5892 5892 5892 5892 5892 5892 5891 5891 5890 5888 5886 5884 5883 5884 5885 5887 5888 5889 5889 5889 5890 5889 5889 5889
5888 5888 5888 5889 5889 5890 5891 5891 5891 5892 5892 5893 5893 5893 5893 5893 5893 5893 5893 5893 5893 5893 5893 5892 5892 5892 5891 5891 5889 5887 5886 5885 5885 5887 5888 5888 5888 5889 5889 5889 5889 5889 5889
5888 5889 5889 5890 5891 5891 5892 5892 5892 5893 5893 5893 5893 5894 5894 5893 5893 5894 5894 5894 5894 5893 5893 5893 5893 5892 5892 5891 5890 5889 5888 5888 5888 5888 5888 5888 5888 5888 5888 5888 5888 5888 5888
5889 5890 5890 5891 5892 5892 5892 5893 5893 5893 5894 5894 5894 5894 5894 5894 5894 5894 5894 5894 5894 5894 5894 5893 5893 5893 5892 5892 5891 5890 5890 5889 5889 5889 5888 5888 5888 5888 5888 5887 5887 5887 5887
5890 5891 5891 5892 5893 5893 5893 5894 5894 5894 5895 5895 5895 5895 5895 5895 5895 5895 5895 5895 5895 5895 5895 5894 5894 5893 5893 5892 5892 5891 5891 5890 5889 5889 5888 5888 5888 5887 5887 5887 5887 5886 5886
5892 5892 5892 5893 5894 5894 5895 5895 5895 5895 5895 5895 5895 5895 5895 5895 5896 5896 5896 5896 5896 5895 5895 5895 5895 5894 5893 5893 5893 5892 5891 5891 5890 5889 5888 5888 5888 5887 5887 5887 5886 5886 5885
5893 5893 5894 5894 5894 5895 5895 5896 5896 5896 5897 5897 5897 5897 5897 5897 5897 5897 5897 5897 5897 5896 5896 5896 5896 5895 5894 5894 5893 5892 5892 5891 5890 5889 5888 5887 5887 5887 5886 5886 5886 5885 5885
5894 5895 5895 5895 5895 5896 5896 5897 5897 5898 5898 5898 5898 5898 5898 5898 5898 5898 5898 5898 5898 5898 5897 5897 5896 5896 5895 5894 5894 5893 5892 5891 5890 5888 5888 5887 5886 5886 5886 5885 5885 5885 5884
5896 5896 5896 5896 5897 5897 5898 5898 5898 5899 5899 5899 5899 5899 5899 5899 5900 5900 5899 5899 5899 5899 5898 5898 5897 5897 5896 5895 5894 5893 5892 5891 5890 5889 5888 5887 5886 5885 5885 5884 5884 5884 5884
5897 5897 5898 5898 5898 5898 5899 5899 5899 5900 5900 5900 5900 5900 5900 5900 5900 5900 5900 5900 5900 5900 5899 5899 5898 5897 5897 5896 5895 5894 5893 5891 5890 5889 5888 5887 5886 5885 5884 5884 5884 5884 5883
5899 5899 5899 5899 5899 5900 5900 5900 5900 5900 5901 5901 5901 5901 5901 5901 5901 5901 5901 5901 5901 5900 5900 5899 5898 5898 5897 5896 5895 5894 5893 5892 5890 5889 5888 5887 5885 5884 5883 5884 5884 5883 5883
5900 5900 5900 5900 5900 5901 5901 5901 5901 5901 5902 5902 5902 5902 5902 5902 5902 5902 5902 5902 5902 5901 5901 5900 5900 5899 5898 5897 5896 5895 5894 5892 5891 5890 5889 5887 5885 5884 5883 5883 5883 5883 5882
5901 5901 5901 5901 5901 5901 5902 5902 5902 5902 5902 5902 5903 5903 5903 5903 5903 5903 5903 5903 5903 5902 5902 5901 5900 5900 5899 5898 5896 5895 5894 5893 5892 5890 5889 5888 5886 5885 5884 5884 5883 5883 5882
5903 5903 5902 5902 5902 5902 5903 5903 5903 5903 5903 5903 5904 5904 5904 5904 5904 5904 5904 5904 5903 5903 5902 5902 5901 5900 5899 5898 5897 5896 5895 5893 5892 5891 5890 5888 5887 5886 5885 5884 5883 5883 5882
5905 5904 5904 5903 5903 5904 5904 5904 5904 5904 5904 5904 5904 5904 5905 5905 5905 5905 5905 5904 5904 5903 5903 5902 5902 5901 5900 5899 5898 5897 5895 5894 5893 5892 5890 5889 5888 5887 5886 5885 5884 5883 5882
5907 5906 5905 5905 5904 5904 5904 5905 5905 5905 5905 5905 5905 5905 5906 5906 5905 5905 5905 5905 5904 5904 5903 5903 5902 5901 5901 5900 5899 5897 5896 5895 5893 5892 5891 5890 5888 5887 5886 5885 5884 5883 5882
5908 5907 5907 5906 5906 5905 5905 5905 5905 5906 5906 5906 5906 5906 5906 5906 5906 5906 5906 5905 5905 5904 5904 5903 5902 5902 5901 5900 5899 5898 5897 5896 5894 5893 5891 5890 5889 5887 5886 5885 5884 5883 5881
5909 5909 5908 5907 5907 5906 5906 5906 5906 5906 5907 5907 5907 5907 5907 5907 5907 5906 5906 5906 5905 5905 5904 5903 5903 5902 5901 5900 5899 5899 5897 5896 5895 5893 5892 5890 5889 5887 5886 5885 5884 5882 5881
5911 5910 5909 5909 5908 5907 5907 5907 5907 5907 5907 5907 5907 5908 5907 5907 5907 5906 5906 5906 5905 5905 5904 5904 5903 5902 5901 5901 5900 5899 5897 5896 5895 5893 5892 5891 5889 5887 5886 5884 5883 5882 5880
5912 5911 5910 5909 5909 5908 5908 5907 5907 5908 5908 5908 5908 5908 5908 5908 5907 5907 5906 5906 5906 5905 5904 5904 5903 5902 5901 5900 5900 5899 5898 5897 5895 5893 5892 5890 5889 5887 5886 5884 5883 5881 5879
5913 5912 5911 5911 5910 5909 5909 5908 5908 5908 5908 5908 5908 5908 5908 5908 5907 5907 5906 5906 5905 5905 5904 5903 5902 5902 5901 5900 5899 5898 5897 5896 5894 5893 5891 5890 5889 5887 5885 5884 5882 5881 5879
5914 5913 5912 5911 5911 5910 5909 5909 5909 5908 5908 5909 5908 5908 5907 5907 5907 5906 5906 5905 5905 5904 5904 5903 5902 5901 5900 5899 5898 5897 5896 5895 5894 5892 5891 5890 5888 5886 5885 5883 5882 5880 5878
5914 5913 5913 5912 5911 5911 5910 5909 5909 5909 5908 5908 5908 5907 5907 5906 5906 5905 5905 5904 5904 5903 5903 5902 5901 5900 5899 5898 5897 5896 5895 5894 5893 5891 5890 5889 5887 5886 5884 5882 5881 5879 5877
5915 5914 5913 5912 5912 5911 5910 5910 5909 5909 5909 5908 5908 5907 5906 5905 5905 5904 5904 5903 5902 5902 5901 5901 5900 5899 5898 5897 5896 5895 5894 5893 5892 5890 5888 5887 5886 5885 5883 5881 5879 5878 5876